FW9894 Weather Reports


Display with metric or nautical units.
time (UTC)temp
F
wind
direction
speed
MPH
gust
MPH
rain 1hr
in
rain 24hr
in
rain mn
in
humidity
%
barometer
mb
20220706160256 95 43 6.0 9.0 0.00 0.00 0.00 49 996.9
20220706155754 95 54 3.0 8.0 0.00 0.00 0.00 52 997.0
20220706155253 95 38 5.0 9.0 0.00 0.00 0.00 53 996.9
20220706154751 95 28 6.0 10.0 0.00 0.00 0.00 53 996.9
20220706154251 95 53 3.0 5.0 0.00 0.00 0.00 52 996.9
20220706153751 95 43 5.0 8.0 0.00 0.00 0.00 52 996.8
20220706153249 95 39 3.0 9.0 0.00 0.00 0.00 52 996.8
20220706152748 95 39 10.0 14.0 0.00 0.00 0.00 52 996.8
20220706152247 95 4 4.0 10.0 0.00 0.00 0.00 51 996.7
20220706151747 95 50 5.0 8.0 0.00 0.00 0.00 52 996.7
20220706151247 96 44 4.0 7.0 0.00 0.00 0.00 49 996.7
20220706150745 96 25 4.0 9.0 0.00 0.00 0.00 49 996.8
20220706150244 96 65 1.0 7.0 0.00 0.00 0.00 49 996.8
20220706145743 96 106 2.0 7.0 0.00 0.00 0.00 49 996.8
20220706145244 96 23 8.0 9.0 0.00 0.00 0.00 50 996.7
20220706144742 96 56 1.0 7.0 0.00 0.00 0.00 49 996.7
20220706144243 97 54 5.0 10.0 0.00 0.00 0.00 50 996.7
20220706143742 96 69 7.0 9.0 0.00 0.00 0.00 49 996.8
20220706143241 97 71 3.0 8.0 0.00 0.00 0.00 48 996.7
20220706142737 96 41 3.0 9.0 0.00 0.00 0.00 49 996.6
20220706142237 96 55 4.0 10.0 0.00 0.00 0.00 49 996.5
20220706141736 96 6 7.0 11.0 0.00 0.00 0.00 48 996.6
20220706141236 97 352 5.0 11.0 0.00 0.00 0.00 48 996.5
20220706140736 97 37 7.0 13.0 0.00 0.00 0.00 47 996.5
20220706140235 97 40 5.0 10.0 0.00 0.00 0.00 44 996.3
20220706135733 97 39 5.0 10.0 0.00 0.00 0.00 45 996.2
20220706135233 98 38 7.0 13.0 0.00 0.00 0.00 43 996.2
20220706134732 98 41 7.0 11.0 0.00 0.00 0.00 44 996.1
20220706134231 98 52 9.0 11.0 0.00 0.00 0.00 45 996.2
20220706133729 98 52 7.0 13.0 0.00 0.00 0.00 43 996.1
20220706133228 98 35 8.0 11.0 0.00 0.00 0.00 42 996.0
20220706132727 98 47 10.0 16.0 0.00 0.00 0.00 41 996.0
20220706132225 98 46 6.0 15.0 0.00 0.00 0.00 42 996.0
20220706131724 98 27 7.0 13.0 0.00 0.00 0.00 42 996.4
20220706131223 98 30 7.0 10.0 0.00 0.00 0.00 43 996.3
20220706130721 98 34 5.0 9.0 0.00 0.00 0.00 43 996.0
20220706130221 98 22 3.0 9.0 0.00 0.00 0.00 43 996.2
20220706125721 98 50 5.0 9.0 0.00 0.00 0.00 44 996.0
20220706125219 98 20 5.0 13.0 0.00 0.00 0.00 43 996.1
20220706124719 98 38 8.0 14.0 0.00 0.00 0.00 44 996.0
20220706124219 98 66 7.0 13.0 0.00 0.00 0.00 44 996.0
20220706123717 99 30 6.0 11.0 0.00 0.00 0.00 42 996.1
20220706123216 98 19 8.0 14.0 0.00 0.00 0.00 43 996.0
20220706122716 99 40 11.0 21.0 0.00 0.00 0.00 41 995.9
20220706122216 99 47 10.0 18.0 0.00 0.00 0.00 40 996.3
20220706121715 99 7 7.0 9.0 0.00 0.00 0.00 40 996.0
20220706121214 99 17 11.0 15.0 0.00 0.00 0.00 40 996.0
20220706120714 100 16 5.0 13.0 0.00 0.00 0.00 40 996.0
20220706120212 100 330 9.0 13.0 0.00 0.00 0.00 40 995.8
20220706115712 100 110 9.0 15.0 0.00 0.00 0.00 40 995.9
20220706115211 100 32 8.0 15.0 0.00 0.00 0.00 40 996.0
20220706114710 100 60 7.0 10.0 0.00 0.00 0.00 40 996.0
20220706114208 100 10 8.0 14.0 0.00 0.00 0.00 39 995.8
20220706113707 99 347 9.0 13.0 0.00 0.00 0.00 39 995.7
20220706113206 99 23 10.0 17.0 0.00 0.00 0.00 39 996.0
20220706112704 100 28 12.0 21.0 0.00 0.00 0.00 39 995.8
20220706112203 99 28 10.0 16.0 0.00 0.00 0.00 38 995.6
20220706111703 100 45 7.0 18.0 0.00 0.00 0.00 39 995.7
20220706111202 101 3 10.0 15.0 0.00 0.00 0.00 38 995.8
20220706110702 100 310 14.0 22.0 0.00 0.00 0.00 40 995.8
20220706110201 100 25 10.0 11.0 0.00 0.00 0.00 39 995.7
20220706105659 100 28 9.0 16.0 0.00 0.00 0.00 38 996.0
20220706105159 100 347 10.0 14.0 0.00 0.00 0.00 37 995.9
20220706104658 100 88 12.0 18.0 0.00 0.00 0.00 38 996.0
20220706104157 102 44 10.0 10.0 0.00 0.00 0.00 36 995.9
20220706103656 101 56 8.0 21.0 0.00 0.00 0.00 36 996.0
20220706103155 102 18 8.0 20.0 0.00 0.00 0.00 35 995.9
20220706102654 102 26 10.0 13.0 0.00 0.00 0.00 34 996.0
20220706102153 102 13 6.0 11.0 0.00 0.00 0.00 34 996.0
20220706101651 102 10 7.0 11.0 0.00 0.00 0.00 33 996.1
20220706101150 102 30 9.0 15.0 0.00 0.00 0.00 34 996.1
20220706100649 102 355 11.0 17.0 0.00 0.00 0.00 34 996.1
20220706100148 103 37 6.0 13.0 0.00 0.00 0.00 33 996.0
20220706095646 101 43 6.0 15.0 0.00 0.00 0.00 34 996.1
20220706095145 101 51 5.0 14.0 0.00 0.00 0.00 36 996.3
20220706094644 101 25 7.0 17.0 0.00 0.00 0.00 36 996.1
20220706094142 101 47 7.0 13.0 0.00 0.00 0.00 35 996.2
20220706093641 101 33 5.0 13.0 0.00 0.00 0.00 35 996.3
20220706093141 102 58 7.0 13.0 0.00 0.00 0.00 35 996.2
20220706092640 102 74 6.0 15.0 0.00 0.00 0.00 35 996.4
20220706092139 102 34 10.0 13.0 0.00 0.00 0.00 35 996.2
20220706091637 101 359 12.0 14.0 0.00 0.00 0.00 38 996.4
20220706091137 101 13 6.0 13.0 0.00 0.00 0.00 35 996.4
20220706090636 101 27 10.0 13.0 0.00 0.00 0.00 35 996.2
20220706090135 101 38 4.0 16.0 0.00 0.00 0.00 40 996.4
20220706085634 101 48 7.0 17.0 0.00 0.00 0.00 40 996.6
20220706085133 101 45 8.0 13.0 0.00 0.00 0.00 40 996.3
20220706084631 100 16 9.0 16.0 0.00 0.00 0.00 42 996.5
20220706084131 100 348 9.0 14.0 0.00 0.00 0.00 40 996.5
20220706083630 101 77 7.0 13.0 0.00 0.00 0.00 40 996.4
20220706083130 101 3 9.0 13.0 0.00 0.00 0.00 37 996.4
20220706082630 100 0 7.0 11.0 0.00 0.00 0.00 38 996.6
20220706082130 101 1 14.0 21.0 0.00 0.00 0.00 39 996.5
20220706081628 101 41 9.0 17.0 0.00 0.00 0.00 38 996.5
20220706081127 101 332 13.0 18.0 0.00 0.00 0.00 37 996.4
20220706080625 101 52 10.0 16.0 0.00 0.00 0.00 37 996.5
20220706080124 101 16 9.0 15.0 0.00 0.00 0.00 38 996.4
20220706075623 102 10 8.0 15.0 0.00 0.00 0.00 36 996.3
20220706075122 102 344 9.0 14.0 0.00 0.00 0.00 37 996.6
20220706074622 101 62 10.0 13.0 0.00 0.00 0.00 36 996.6
20220706074121 101 38 8.0 14.0 0.00 0.00 0.00 38 996.6
20220706073621 102 5 11.0 14.0 0.00 0.00 0.00 38 996.6
20220706073120 100 354 7.0 13.0 0.00 0.00 0.00 40 996.3
20220706072618 100 355 9.0 13.0 0.00 0.00 0.00 39 996.3
20220706072118 101 26 7.0 20.0 0.00 0.00 0.00 38 996.3
20220706071617 100 47 6.0 15.0 0.00 0.00 0.00 38 996.4
20220706071115 101 13 11.0 11.0 0.00 0.00 0.00 39 996.2
20220706070616 100 41 6.0 15.0 0.00 0.00 0.00 38 996.3
20220706070113 100 63 10.0 14.0 0.00 0.00 0.00 38 996.3
20220706065611 100 354 9.0 14.0 0.00 0.00 0.00 37 996.6
20220706065111 100 0 9.0 11.0 0.00 0.00 0.00 37 996.5
20220706064610 100 15 7.0 14.0 0.00 0.00 0.00 41 996.6
20220706064109 100 1 5.0 10.0 0.00 0.00 0.00 39 996.5
20220706063609 100 31 9.0 13.0 0.00 0.00 0.00 39 996.5
20220706063108 100 42 4.0 13.0 0.00 0.00 0.00 40 996.3
20220706062607 100 10 10.0 11.0 0.00 0.00 0.00 39 996.4
20220706062107 99 19 6.0 13.0 0.00 0.00 0.00 39 996.2
20220706061606 100 8 9.0 10.0 0.00 0.00 0.00 40 996.2
20220706061105 99 25 5.0 15.0 0.00 0.00 0.00 40 996.1
20220706060605 98 338 9.0 16.0 0.00 0.00 0.00 41 996.3
20220706060105 99 3 9.0 14.0 0.00 0.00 0.00 40 996.3
20220706055603 98 347 8.0 14.0 0.00 0.00 0.00 42 996.3
20220706055101 98 20 10.0 15.0 0.00 0.00 0.00 41 996.1
20220706054601 99 60 6.0 11.0 0.00 0.00 0.00 39 996.1
20220706054101 99 45 3.0 9.0 0.00 0.00 0.00 38 996.0
20220706053559 99 359 4.0 14.0 0.00 0.00 0.00 38 996.1
20220706053059 98 26 10.0 13.0 0.00 0.00 0.00 37 996.2
20220706052559 98 11 11.0 14.0 0.00 0.00 0.00 37 996.4
20220706052058 97 349 8.0 11.0 0.00 0.00 0.00 37 996.1
20220706051558 98 358 10.0 11.0 0.00 0.00 0.00 36 996.0
20220706051058 97 15 7.0 11.0 0.00 0.00 0.00 37 995.8
20220706050558 97 21 5.0 10.0 0.00 0.00 0.00 36 996.1
20220706050056 97 357 9.0 10.0 0.00 0.00 0.00 37 996.2
20220706045556 97 35 6.0 9.0 0.00 0.00 0.00 39 996.2
20220706045055 96 25 7.0 10.0 0.00 0.00 0.00 40 996.1
20220706044553 96 13 4.0 10.0 0.00 0.00 0.00 38 996.0
20220706044051 95 50 3.0 7.0 0.00 0.00 0.00 40 996.0
20220706043550 95 355 6.0 8.0 0.00 0.00 0.00 41 996.0
20220706043048 95 60 2.0 5.0 0.00 0.00 0.00 41 996.0
20220706042549 95 1 5.0 7.0 0.00 0.00 0.00 41 995.9
20220706042047 95 316 5.0 5.0 0.00 0.00 0.00 40 996.0
20220706041546 95 0 2.0 3.0 0.00 0.00 0.00 40 996.2
20220706041046 95 2 4.0 5.0 0.00 0.00 0.00 40 996.0
20220706040544 94 271 2.0 3.0 0.00 0.00 0.00 41 995.8
20220706040042 94 330 3.0 3.0 0.00 0.00 0.00 41 995.8
20220706035542 94 330 3.0 5.0 0.00 0.00 0.00 41 995.8
20220706035041 94 326 3.0 3.0 0.00 0.00 0.00 42 995.7
20220706034539 94 321 2.0 3.0 0.00 0.00 0.00 42 995.9
20220706034038 94 302 2.0 3.0 0.00 0.00 0.00 42 995.6
20220706033538 94 302 2.0 2.0 0.00 0.00 0.00 43 995.8
20220706033036 93 321 1.0 3.0 0.00 0.00 0.00 44 995.9
20220706032535 94 313 2.0 2.0 0.00 0.00 0.00 44 995.4
20220706032033 94 311 3.0 3.0 0.00 0.00 0.00 42 995.6
20220706031533 93 310 3.0 3.0 0.00 0.00 0.00 44 995.5
20220706031032 93 325 2.0 2.0 0.00 0.00 0.00 45 995.3
20220706030530 93 316 2.0 5.0 0.00 0.00 0.00 44 995.5
20220706030030 93 316 2.0 6.0 0.00 0.00 0.00 45 995.4
20220706025528 93 315 2.0 3.0 0.00 0.00 0.00 44 995.3
20220706025027 93 304 4.0 6.0 0.00 0.00 0.00 42 995.1
20220706024527 93 329 2.0 6.0 0.00 0.00 0.00 44 995.2
20220706024025 93 306 4.0 6.0 0.00 0.00 0.00 43 995.2
20220706023525 93 312 3.0 6.0 0.00 0.00 0.00 44 995.0
20220706023023 93 315 3.0 5.0 0.00 0.00 0.00 44 995.2
20220706022523 93 310 3.0 3.0 0.00 0.00 0.00 42 994.8
20220706022022 93 306 2.0 6.0 0.00 0.00 0.00 40 995.1
20220706021519 93 304 3.0 3.0 0.00 0.00 0.00 41 995.0
20220706021018 92 320 2.0 2.0 0.00 0.00 0.00 44 994.8
20220706020517 92 314 2.0 3.0 0.00 0.00 0.00 45 995.0
20220706020015 92 322 3.0 5.0 0.00 0.00 0.00 47 995.0
20220706015513 92 319 3.0 3.0 0.00 0.00 0.00 49 994.8
20220706015012 92 309 1.0 3.0 0.00 0.00 0.00 51 994.9
20220706014511 91 317 2.0 2.0 0.00 0.00 0.00 52 995.2
20220706014010 91 316 2.0 2.0 0.00 0.00 0.00 54 995.1
20220706013508 92 318 2.0 3.0 0.00 0.00 0.00 56 995.1
20220706013007 91 311 2.0 2.0 0.00 0.00 0.00 59 995.0
20220706012505 91 315 1.0 2.0 0.00 0.00 0.00 59 995.1
20220706012003 91 316 2.0 3.0 0.00 0.00 0.00 58 995.0
20220706011503 91 309 1.0 2.0 0.00 0.00 0.00 58 995.1
20220706011001 91 309 3.0 5.0 0.00 0.00 0.00 59 995.3
20220706010446 91 255 3.0 5.0 0.00 0.00 0.00 61 995.2
20220706005944 91 326 2.0 3.0 0.00 0.00 0.00 63 995.0
20220706005444 91 280 2.0 5.0 0.00 0.00 0.00 65 995.1
20220706004943 91 257 1.0 3.0 0.00 0.00 0.00 65 995.0
20220706004441 91 297 1.0 5.0 0.00 0.00 0.00 64 995.1
20220706003941 91 287 3.0 3.0 0.00 0.00 0.00 64 995.1
20220706003439 91 347 3.0 5.0 0.00 0.00 0.00 64 995.1
20220706002938 90 234 1.0 6.0 0.00 0.00 0.00 63 994.8
20220706002437 90 299 3.0 7.0 0.00 0.00 0.00 63 995.1
20220706001936 90 317 6.0 8.0 0.00 0.00 0.00 63 995.0
20220706001436 91 288 3.0 3.0 0.00 0.00 0.00 61 994.8
20220706000934 92 192 2.0 6.0 0.00 0.00 0.00 57 994.7
20220706000432 92 317 5.0 7.0 0.00 0.00 0.00 49 994.9
20220705235931 93 323 0.0 2.0 0.00 0.00 0.00 44 994.9
20220705235429 93 321 2.0 3.0 0.00 0.00 0.00 43 995.1
20220705234929 93 308 2.0 2.0 0.00 0.00 0.00 43 994.6
20220705234429 93 321 2.0 5.0 0.00 0.00 0.00 44 994.8
20220705233928 93 313 6.0 8.0 0.00 0.00 0.00 44 994.8
20220705233427 93 302 8.0 9.0 0.00 0.00 0.00 45 994.6
20220705232925 94 322 4.0 5.0 0.00 0.00 0.00 43 994.8
20220705232423 93 293 0.0 1.0 0.00 0.00 0.00 42 994.9
20220705231923 94 309 1.0 2.0 0.00 0.00 0.00 42 994.7
20220705231421 94 309 4.0 5.0 0.00 0.00 0.00 41 994.8
20220705230921 94 59 2.0 2.0 0.00 0.00 0.00 39 994.7
20220705230419 94 71 1.0 1.0 0.00 0.00 0.00 39 995.0
20220705225919 94 32 1.0 2.0 0.00 0.00 0.00 40 994.9
20220705225419 94 44 2.0 3.0 0.00 0.00 0.00 40 994.9
20220705224919 94 43 1.0 2.0 0.00 0.00 0.00 41 994.9
20220705224418 93 39 3.0 5.0 0.00 0.00 0.00 41 994.7
20220705223918 93 0 3.0 3.0 0.00 0.00 0.00 45 994.9
20220705223417 93 28 2.0 3.0 0.00 0.00 0.00 45 994.9
20220705222916 93 24 3.0 5.0 0.00 0.00 0.00 45 994.6
20220705222414 93 358 2.0 3.0 0.00 0.00 0.00 45 995.0
20220705221912 93 359 3.0 3.0 0.00 0.00 0.00 46 994.7
20220705221410 93 11 2.0 5.0 0.00 0.00 0.00 46 994.7
20220705220910 94 351 3.0 3.0 0.00 0.00 0.00 45 994.5
20220705220408 94 59 1.0 2.0 0.00 0.00 0.00 43 994.9
20220705215907 94 37 1.0 3.0 0.00 0.00 0.00 43 995.0
20220705215405 94 44 2.0 2.0 0.00 0.00 0.00 44 994.8
20220705214904 93 355 3.0 3.0 0.00 0.00 0.00 45 994.5
20220705214403 93 358 3.0 5.0 0.00 0.00 0.00 46 994.7
20220705213902 93 10 3.0 3.0 0.00 0.00 0.00 45 994.8
20220705213401 93 86 1.0 2.0 0.00 0.00 0.00 45 995.1
20220705212900 93 6 2.0 2.0 0.00 0.00 0.00 45 995.0
20220705212358 93 6 2.0 3.0 0.00 0.00 0.00 46 995.1
20220705211858 94 8 2.0 3.0 0.00 0.00 0.00 46 995.2
20220705211357 94 20 2.0 2.0 0.00 0.00 0.00 45 995.5
20220705210857 94 44 2.0 2.0 0.00 0.00 0.00 45 995.7
20220705210356 94 33 2.0 3.0 0.00 0.00 0.00 45 995.6
20220705205856 94 41 3.0 5.0 0.00 0.00 0.00 45 995.5
20220705205356 94 32 4.0 5.0 0.00 0.00 0.00 45 995.7
20220705204855 93 4 1.0 2.0 0.00 0.00 0.00 46 995.5
20220705204353 93 3 2.0 3.0 0.00 0.00 0.00 46 995.5
20220705203851 94 5 2.0 2.0 0.00 0.00 0.00 46 995.5
20220705203349 93 5 3.0 3.0 0.00 0.00 0.00 46 995.5
20220705202849 94 5 2.0 3.0 0.00 0.00 0.00 45 995.5
20220705202350 94 73 2.0 3.0 0.00 0.00 0.00 45 995.5
20220705201849 94 28 3.0 5.0 0.00 0.00 0.00 44 995.5
20220705201347 94 39 3.0 5.0 0.00 0.00 0.00 44 995.5
20220705200846 94 35 3.0 5.0 0.00 0.00 0.00 44 995.4
20220705200345 94 54 2.0 5.0 0.00 0.00 0.00 44 995.4
20220705195844 94 57 2.0 3.0 0.00 0.00 0.00 44 995.6
20220705195343 94 55 1.0 3.0 0.00 0.00 0.00 43 995.6
20220705194843 94 56 3.0 6.0 0.00 0.00 0.00 43 995.5
20220705194343 95 359 4.0 6.0 0.00 0.00 0.00 42 995.4
20220705193841 95 56 2.0 5.0 0.00 0.00 0.00 42 995.5
20220705193340 95 31 3.0 5.0 0.00 0.00 0.00 41 995.2
20220705192840 95 14 3.0 5.0 0.00 0.00 0.00 41 995.4
20220705192341 95 10 4.0 7.0 0.00 0.00 0.00 41 995.4
20220705191839 95 45 3.0 6.0 0.00 0.00 0.00 41 995.2
20220705191337 95 359 5.0 6.0 0.00 0.00 0.00 41 995.4
20220705190836 95 34 4.0 8.0 0.00 0.00 0.00 41 995.5
20220705190336 95 0 4.0 5.0 0.00 0.00 0.00 42 995.4
20220705185836 95 343 5.0 6.0 0.00 0.00 0.00 43 995.3
20220705185336 95 2 3.0 5.0 0.00 0.00 0.00 42 995.3
20220705184835 96 52 3.0 5.0 0.00 0.00 0.00 41 995.5
20220705184335 96 72 2.0 2.0 0.00 0.00 0.00 41 995.5
20220705183834 96 30 2.0 2.0 0.00 0.00 0.00 41 995.5
20220705183333 96 65 1.0 5.0 0.00 0.00 0.00 41 995.5
20220705182833 96 34 2.0 2.0 0.00 0.00 0.00 41 995.4
20220705182332 96 48 1.0 2.0 0.00 0.00 0.00 42 995.4
20220705181833 95 46 2.0 2.0 0.00 0.00 0.00 43 995.3
20220705181331 95 59 2.0 3.0 0.00 0.00 0.00 43 995.3
20220705180830 95 49 2.0 3.0 0.00 0.00 0.00 43 995.3
20220705180329 95 28 4.0 5.0 0.00 0.00 0.00 44 995.3
20220705175828 95 46 3.0 3.0 0.00 0.00 0.00 44 995.4
20220705175326 95 56 3.0 3.0 0.00 0.00 0.00 45 995.4
20220705174824 95 54 2.0 3.0 0.00 0.00 0.00 46 995.2
20220705174324 95 56 1.0 2.0 0.00 0.00 0.00 47 994.6
20220705173823 95 359 5.0 6.0 0.00 0.00 0.00 47 994.6
20220705173323 95 58 2.0 5.0 0.00 0.00 0.00 48 994.6
20220705172822 95 2 5.0 6.0 0.00 0.00 0.00 48 994.6
20220705172320 95 5 4.0 6.0 0.00 0.00 0.00 49 994.6
20220705171819 95 357 5.0 7.0 0.00 0.00 0.00 48 994.6
20220705171317 95 37 5.0 6.0 0.00 0.00 0.00 47 994.6
20220705170816 95 47 2.0 6.0 0.00 0.00 0.00 46 994.7
20220705170314 95 37 4.0 6.0 0.00 0.00 0.00 46 994.5
20220705165813 95 1 3.0 6.0 0.00 0.00 0.00 46 994.4
20220705165312 95 25 5.0 6.0 0.00 0.00 0.00 46 994.4
20220705164810 96 359 4.0 6.0 0.00 0.00 0.00 44 994.4
20220705164309 96 15 4.0 9.0 0.00 0.00 0.00 41 994.3
20220705163808 96 356 5.0 7.0 0.00 0.00 0.00 41 994.4
20220705163307 96 356 4.0 8.0 0.00 0.00 0.00 42 994.0
20220705162805 96 23 4.0 8.0 0.00 0.00 0.00 42 994.4
20220705162303 96 7 3.0 6.0 0.00 0.00 0.00 41 994.2
20220705161803 96 38 4.0 7.0 0.00 0.00 0.00 41 994.2
20220705161302 96 1 7.0 7.0 0.00 0.00 0.00 39 994.3
20220705160802 96 8 4.0 8.0 0.00 0.00 0.00 40 994.1